Flag for Canada Weather past 2 weeks in Port Coquitlam, British Columbia, Canada

Now
89 °F

Hot.


Feels Like: 87 °F
Forecast: 62 / 90 °F
Wind: 13 mph from West

Location: P. Meadows Coastal Station

Current Time: Jul 1, 2015 at 4:32:17 PM

Latest Report: Jul 1, 2015 at 4:00 PM


Visibility: N/A

Pressure: 29.96 "Hg

Humidity: 31%

Dew point: 55 °F

Location of Port CoquitlamLocation

Historic Weather in Port Coquitlam — Graph

°F

Port Coquitlam temperature yesterday

Maximum temperature yesterday: 84 °F (at 4:00 PM)
Minimum temperature yesterday: 62 °F (at 6:00 AM)
Average temperature yesterday: 73 °F

Past Weeks' High & Low Weather Summary

 TemperatureHumidityPressure
High91 °F (Jun 27, 5:00 PM)94% (Jun 21, 5:00 AM)30.16 "Hg (Jun 21, 5:00 AM)
Low50 °F (Jun 21, 4:00 AM)23% (Jun 23, 7:00 PM)29.87 "Hg (Jun 21, 2:00 PM)
Average69 °F60%30.03 "Hg
* Reported Jun 16 4:00 PM — Jul 1 2:00 PM, Port Coquitlam, Weather by CustomWeather, © 2015

Note: Actual official high and low records may vary slightly from our data, if they occured in-between our weather recording intervals... More about our weather records

Advertising

Port Coquitlam weather history for previous 24 hours

 ConditionsComfort  
Time TempWeatherWind HumidityBarometerVisibility
2:00 PM
Wed, Jul 1
85 °FPleasantly warm.13 mph39%29.99 "HgN/A
1:00 PM85 °FPleasantly warm.10 mph39%30.01 "HgN/A
12:00 PM82 °FWarm.10 mph45%30.03 "HgN/A
11:00 AM79 °FWarm.9 mph50%30.04 "HgN/A
10:00 AM76 °FMild.6 mph54%30.06 "HgN/A
9:00 AM71 °FMild.1 mph68%30.07 "HgN/A
8:00 AM68 °FMild.1 mph73%30.07 "HgN/A
7:00 AM66 °FMild.1 mph77%30.07 "HgN/A
6:00 AM63 °FMild.No wind84%30.06 "HgN/A
5:00 AM62 °FCool.2 mph85%30.06 "HgN/A
4:00 AM63 °FMild.3 mph79%30.05 "HgN/A
3:00 AM64 °FMild.3 mph83%30.04 "HgN/A
2:00 AM65 °FMild.3 mph81%30.04 "HgN/A
1:00 AM66 °FMild.2 mph78%30.04 "HgN/A
12:00 AM70 °FMild.2 mph71%30.04 "HgN/A
11:00 PM
Tue, Jun 30
70 °FMild.1 mph71%30.03 "HgN/A
10:00 PM73 °FMild.3 mph64%30.03 "HgN/A
9:00 PM76 °FMild.3 mph56%30.01 "HgN/A
8:00 PM79 °FWarm.5 mph50%30.01 "HgN/A
7:00 PM80 °FWarm.5 mph47%30.01 "HgN/A
6:00 PM83 °FWarm.6 mph42%30.01 "HgN/A
5:00 PM84 °FPleasantly warm.6 mph38%30.03 "HgN/A
4:00 PM84 °FWarm.5 mph41%30.04 "HgN/A
Weather by CustomWeather, © 2015

See weather overviewHow to use our weather pages